TOURFACTS.DK  
Stats and Facts from Tour de France.

Tour de France 2018 starts in 203 days
  Riders   Stages   Teams   Summits   Yearly  


 
Search by year

 2017 - St. 21:  14824 starters.
  5132 different riders.
  635 teams.
  2232 stages.
  454 restdays.
  439589.60 km.
  5653 abandonnees.


Top 3
Christopher Froome86:20:55
Rigoberto Uran86:21:49
Romain Bardet86:23:15
Warren Barguil169 pt.
Primoz Roglic80 pt.
Thomas De Gendt64 pt.
Michael Matthews359 pt.
André Greipel234 pt.
Edvald Boasson Hagen220 pt.
Simon Yates86:27:09
Louis Meintjes86:29:15
Emanuel Buchmann86:54:16
Facts from Tour de France 2017
  |   Stages.  |   Stage winners.  |   Days in yellow  |   Average speed.  |   Route.  |   Teams.  |   All riders.  |   Rookies.  |   Withdrawls.  |  

  |   GC.  |   Polka  |   Green  |   White  |   Summits. (In tour)  |   Summits. (Points)  |   Miscellaneous.  |  

Stage 14 on 15 - 07 - 2017
         Owning:    Christopher Froome      Warren Barguil      Marcel Kittel      Simon Yates  

Pick a stage:  1 2 3 4 5 6 7 8 9 10 11 12 13 14 15 16 17 18 19 20 21
  BlagnacRodez | Dist: 181.50 km.
Cat: 3Côte du viaduc du ViaurBELThomas De Gendt
2 points
 
Cat: 3Côte de CentrèsBELThomas De Gendt
2 points
 

Average speed for all riders in stage:  40,669 km./hr.
    Place:Name:Team:Time:Km/h:
AUSMichael MatthewsDEUTeam Sunweb04:21:56  +  00:00:00=41,575 
BELGreg Van AvermaetUSABMC Racing Team04:21:56  +  00:00:00=41,575 
NOREdvald Boasson HagenZAFDimension Data04:21:57  +  00:00:01=41,573 
4 BELPhilippe GilbertBELQuick-Step Floors04:21:57  +  00:00:01=41,573 
5 AUSJay McCarthyDEUBora–Hansgrohe04:21:57  +  00:00:01=41,573 
6 ITASonny ColbrelliBHRBahrain-Merida04:21:57  +  00:00:01=41,573 
7 KENChristopher FroomeGBRSky Procycling04:21:57  +  00:00:01=41,573 
8 ENGDaniel MartinBELQuick-Step Floors04:21:57  +  00:00:01=41,573 
9 COLRigoberto UranUSACannondale-Drapac Pro Cycling ..04:21:57  +  00:00:01=41,573 
10 BELTiesj BenootBELLotto Soudal04:22:01  +  00:00:05=41,562 
11 FRARomain BardetFRAAg2r La Mondiale04:22:01  +  00:00:05=41,562 
12 CZEZdenek StybarBELQuick-Step Floors04:22:01  +  00:00:05=41,562 
13 ENGSimon YatesAUSOrica - Scott04:22:01  +  00:00:05=41,562 
14 BELJan BakelantsFRAAg2r La Mondiale04:22:01  +  00:00:05=41,562 
15 GERPaul MartensNLDTeam Lotto NL - Jumbo04:22:01  +  00:00:05=41,562 
16 ITADavide CimolaiFRAFDJ04:22:08  +  00:00:12=41,544 
17 FRANacer BouhanniFRACofidis – Solutions Crédits04:22:08  +  00:00:12=41,544 
18 AUSSimon ClarkeUSACannondale-Drapac Pro Cycling ..04:22:08  +  00:00:12=41,544 
19 ITAMarco MarcatoUAEUAE Team Emirates04:22:11  +  00:00:15=41,536 
20 ESPMikel Landa MeanaGBRSky Procycling04:22:11  +  00:00:15=41,536 
21 FRALilian CalmejaneFRADirect Energie04:22:16  +  00:00:20=41,523 
22 ITADamiano CarusoUSABMC Racing Team04:22:16  +  00:00:20=41,523 
23 COLNairo QuintanaESPMovistar Team04:22:18  +  00:00:22=41,517 
24 ESPAlberto ContadorUSATrek – Segafredo04:22:18  +  00:00:22=41,517 
25 NZLGeorge BennettNLDTeam Lotto NL - Jumbo04:22:18  +  00:00:22=41,517 
26 BELOliver NaesenFRAAg2r La Mondiale04:22:21  +  00:00:25=41,509 
27 GERGianluca BrambillaBELQuick-Step Floors04:22:21  +  00:00:25=41,509 
28 RSALouis MeintjesUAEUAE Team Emirates04:22:21  +  00:00:25=41,509 
29 GEREmanuel BuchmannDEUBora–Hansgrohe04:22:21  +  00:00:25=41,509 
30 ITAFabio AruKAZAstana Pro Team04:22:21  +  00:00:25=41,509 
31 FRAAlexis VuillermozFRAAg2r La Mondiale04:22:21  +  00:00:25=41,509 
32 RSADaryl ImpeyAUSOrica - Scott04:22:21  +  00:00:25=41,509 
33 FRALaurent PichonFRAFortuneo - Vital Concept04:22:21  +  00:00:25=41,509 
34 FRASylvain ChavanelFRADirect Energie04:22:21  +  00:00:25=41,509 
35 FRARomain HardyFRAFortuneo - Vital Concept04:22:21  +  00:00:25=41,509 
36 GERJohn DegenkolbUSATrek – Segafredo04:22:26  +  00:00:30=41,496 
37 COLCarlos Alberto BetancurESPMovistar Team04:22:26  +  00:00:30=41,496 
38 COLSergio Luis HenaoGBRSky Procycling04:22:26  +  00:00:30=41,496 
39 FRAPierre-Roger LatourFRAAg2r La Mondiale04:22:26  +  00:00:30=41,496 
40 NEDMarco MinnaardBELWanty – Groupe Gobert04:22:26  +  00:00:30=41,496 
41 FRAGuillaume MartinBELWanty – Groupe Gobert04:22:29  +  00:00:33=41,488 
42 NORAlexander KristoffCHETeam Katusha - Alpecin04:22:29  +  00:00:33=41,488 
43 FRAAngelo TulikFRADirect Energie04:22:29  +  00:00:33=41,488 
44 FRATony GallopinBELLotto Soudal04:22:39  +  00:00:43=41,462 
45 FRABrice FeilluFRAFortuneo - Vital Concept04:22:43  +  00:00:47=41,452 
46 BELSerge PauwelsZAFDimension Data04:22:43  +  00:00:47=41,452 
47 ENGBen SwiftUAEUAE Team Emirates04:22:45  +  00:00:49=41,446 
48 BELFrederik BackaertBELWanty – Groupe Gobert04:22:48  +  00:00:52=41,438 
49 POLPawel PoljanskiDEUBora–Hansgrohe04:22:48  +  00:00:52=41,438 
50 NEDBauke MollemaUSATrek – Segafredo04:22:48  +  00:00:52=41,438 
51 GERNikias ArndtDEUTeam Sunweb04:22:48  +  00:00:52=41,438 
52 FRAWarren BarguilDEUTeam Sunweb04:22:48  +  00:00:52=41,438 
53 NZLDion SmithBELWanty – Groupe Gobert04:22:48  +  00:00:52=41,438 
54 AUSAdam HansenBELLotto Soudal04:22:48  +  00:00:52=41,438 
55 BELJulien VermoteBELQuick-Step Floors04:22:53  +  00:00:57=41,425 
56 FRACyril GautierFRAAg2r La Mondiale04:22:55  +  00:00:59=41,420 
57 SUIMathias FrankFRAAg2r La Mondiale04:22:55  +  00:00:59=41,420 
58 BELJens KeukeleireAUSOrica - Scott04:23:06  +  00:01:10=41,391 
59 GERNils PolittCHETeam Katusha - Alpecin04:23:06  +  00:01:10=41,391 
60 ITADiego UlissiUAEUAE Team Emirates04:23:06  +  00:01:10=41,391 
61 GERMarcus BurghardtDEUBora–Hansgrohe04:23:06  +  00:01:10=41,391 
62 KAZAndrey ZeitsKAZAstana Pro Team04:23:10  +  00:01:14=41,381 
63 FRAMaxime BouetFRAFortuneo - Vital Concept04:23:11  +  00:01:15=41,378 
64 USANathan BrownUSACannondale-Drapac Pro Cycling ..04:23:11  +  00:01:15=41,378 
65 BELThomas DegandBELWanty – Groupe Gobert04:23:11  +  00:01:15=41,378 
66 LUXBen GastauerFRAAg2r La Mondiale04:23:11  +  00:01:15=41,378 
67 FRAAxel DomontFRAAg2r La Mondiale04:23:11  +  00:01:15=41,378 
68 ESPHaimar ZubeldiaUSATrek – Segafredo04:23:11  +  00:01:15=41,378 
69 COLDarwin AtapumaUAEUAE Team Emirates04:23:11  +  00:01:15=41,378 
70 ESPMikel NieveGBRSky Procycling04:23:11  +  00:01:15=41,378 
71 PORTiago PintoCHETeam Katusha - Alpecin04:23:11  +  00:01:15=41,378 
72 FRAThibaut PinotFRAFDJ04:23:18  +  00:01:22=41,360 
73 ITADaniele BennatiESPMovistar Team04:23:21  +  00:01:25=41,352 
74 FRAPierre-Luc PérichonFRAFortuneo - Vital Concept04:23:23  +  00:01:27=41,347 
75 FRARudy MolardFRAFDJ04:23:28  +  00:01:32=41,334 
76 FRAOlivier Le GacFRAFDJ04:23:30  +  00:01:34=41,328 
77 POLMaciej BodnarDEUBora–Hansgrohe04:23:30  +  00:01:34=41,328 
78 GERTony MartinCHETeam Katusha - Alpecin04:23:30  +  00:01:34=41,328 
79 NEDKoen De KortUSATrek – Segafredo04:23:30  +  00:01:34=41,328 
80 CZERoman KreuzigerAUSOrica - Scott04:23:30  +  00:01:34=41,328 
81 HRVRobert KiserlovskiCHETeam Katusha - Alpecin04:23:39  +  00:01:43=41,305 
82 HRVKristijan DurasekUAEUAE Team Emirates04:23:39  +  00:01:43=41,305 
83 SUIMichael AlbasiniAUSOrica - Scott04:23:41  +  00:01:45=41,300 
84 COLJohan Esteban ChavesAUSOrica - Scott04:23:53  +  00:01:57=41,268 
85 POLMichal KwiatkowskiGBRSky Procycling04:23:55  +  00:01:59=41,263 
86 ENGScott ThwaitesZAFDimension Data04:23:59  +  00:02:03=41,253 
87 SUIMichael SchärUSABMC Racing Team04:23:59  +  00:02:03=41,253 
88 FRAChristophe LaporteFRACofidis – Solutions Crédits04:24:02  +  00:02:06=41,245 
89 NZLJack BauerBELQuick-Step Floors04:24:14  +  00:02:18=41,214 
90 BELThomas De GendtBELLotto Soudal04:24:14  +  00:02:18=41,214 
91 DENMichael ValgrenKAZAstana Pro Team04:24:14  +  00:02:18=41,214 
92 RSAReinardt Janse Van RensburgZAFDimension Data04:24:19  +  00:02:23=41,201 
93 ETHTsgabu Gebremaryan GrmayBHRBahrain-Merida04:24:22  +  00:02:26=41,193 
94 SUIStefan KüngUSABMC Racing Team04:24:23  +  00:02:27=41,190 
95 FRACyril LemoineFRACofidis – Solutions Crédits04:24:27  +  00:02:31=41,180 
96 NEDMaurits LammertinkCHETeam Katusha - Alpecin04:24:42  +  00:02:46=41,141 
97 CRCAndrey AmadorESPMovistar Team04:25:00  +  00:03:04=41,094 
98 ITAAlberto BettiolUSACannondale-Drapac Pro Cycling ..04:25:05  +  00:03:09=41,081 
99 ESPJesus HerradaESPMovistar Team04:25:05  +  00:03:09=41,081 
100 BLRVasil KiryienkaGBRSky Procycling04:25:15  +  00:03:19=41,056 
101 RSAJaco VenterZAFDimension Data04:27:22  +  00:05:26=40,731 
102 SUIReto HollensteinCHETeam Katusha - Alpecin04:28:00  +  00:06:04=40,634 
103 GERSimon GeschkeDEUTeam Sunweb04:28:24  +  00:06:28=40,574 
104 SUIDanilo WyssUSABMC Racing Team04:28:24  +  00:06:28=40,574 
105 NEDTimo RoosenNLDTeam Lotto NL - Jumbo04:28:24  +  00:06:28=40,574 
106 FRAFlorian VachonFRAFortuneo - Vital Concept04:28:24  +  00:06:28=40,574 
107 WALLuke RoweGBRSky Procycling04:28:24  +  00:06:28=40,574 
108 SLOJanez BrajkovicBHRBahrain-Merida04:28:24  +  00:06:28=40,574 
109 KAZAlexey LutsenkoKAZAstana Pro Team04:28:24  +  00:06:28=40,574 
110 NEDTom LeezerNLDTeam Lotto NL - Jumbo04:28:24  +  00:06:28=40,574 
111 FRAThomas VoecklerFRADirect Energie04:28:24  +  00:06:28=40,574 
112 FRANicolas RocheUSABMC Racing Team04:28:24  +  00:06:28=40,574 
113 FRAYohann GèneFRADirect Energie04:28:24  +  00:06:28=40,574 
114 FRAThomas BoudatFRADirect Energie04:28:53  +  00:06:57=40,501 
115 NEDDylan Van BaarleUSACannondale-Drapac Pro Cycling ..04:29:56  +  00:08:00=40,343 
116 NEDLaurens ten DamDEUTeam Sunweb04:33:01  +  00:11:05=39,888 
117 NEDMike TeunissenDEUTeam Sunweb04:33:01  +  00:11:05=39,888 
118 JPNYukiya ArashiroBHRBahrain-Merida04:33:59  +  00:12:03=39,747 
119 ESPMarkel IrizarUSATrek – Segafredo04:33:59  +  00:12:03=39,747 
120 FRAJulien SimonFRACofidis – Solutions Crédits04:33:59  +  00:12:03=39,747 
121 ITAAlessandro De MarchiUSABMC Racing Team04:34:12  +  00:12:16=39,716 
122 GERAndré GreipelBELLotto Soudal04:35:13  +  00:13:17=39,569 
123 NEDRamon SinkeldamDEUTeam Sunweb04:35:13  +  00:13:17=39,569 
124 AUTBernhard EiselZAFDimension Data04:35:13  +  00:13:17=39,569 
125 GERMarcel SiebergBELLotto Soudal04:35:13  +  00:13:17=39,569 
126 FRAAdrien PetitFRADirect Energie04:35:13  +  00:13:17=39,569 
127 BELGuillaume Van KeirsbulckBELWanty – Groupe Gobert04:35:13  +  00:13:17=39,569 
128 GERJasha SütterlinESPMovistar Team04:35:13  +  00:13:17=39,569 
129 GERRick ZabelCHETeam Katusha - Alpecin04:35:13  +  00:13:17=39,569 
130 NZLPaddy BevinUSACannondale-Drapac Pro Cycling ..04:35:13  +  00:13:17=39,569 
131 DDRRüdiger SeligDEUBora–Hansgrohe04:35:13  +  00:13:17=39,569 
132 DENLars BakBELLotto Soudal04:35:13  +  00:13:17=39,569 
133 ITAFabio SabatiniBELQuick-Step Floors04:35:13  +  00:13:17=39,569 
134 ITAMatteo BonoUAEUAE Team Emirates04:35:13  +  00:13:17=39,569 
135 ESPLuis Angel MateFRACofidis – Solutions Crédits04:35:13  +  00:13:17=39,569 
136 GERRobert WagnerNLDTeam Lotto NL - Jumbo04:35:13  +  00:13:17=39,569 
137 NEDRoy CurversDEUTeam Sunweb04:35:13  +  00:13:17=39,569 
138 FRANicolas EdetFRACofidis – Solutions Crédits04:35:13  +  00:13:17=39,569 
139 NORVegard Stake LaengenUAEUAE Team Emirates04:35:13  +  00:13:17=39,569 
140 AUSDamien HowsonAUSOrica - Scott04:35:13  +  00:13:17=39,569 
141 SLOPrimoz RoglicNLDTeam Lotto NL - Jumbo04:35:13  +  00:13:17=39,569 
142 ESPImanol ErvitiESPMovistar Team04:35:13  +  00:13:17=39,569 
143 ESPJonathan CastroviejoESPMovistar Team04:35:13  +  00:13:17=39,569 
144 FRAYoann OffredoBELWanty – Groupe Gobert04:35:13  +  00:13:17=39,569 
145 FRAElie GesbertFRAFortuneo - Vital Concept04:35:13  +  00:13:17=39,569 
146 ESPJavier Moreno BazánBHRBahrain-Merida04:35:13  +  00:13:17=39,569 
147 ARGEduardo SepulvedaFRAFortuneo - Vital Concept04:35:13  +  00:13:17=39,569 
148 GERChristian KneesGBRSky Procycling04:35:13  +  00:13:17=39,569 
149 ESPDaniel NavarroFRACofidis – Solutions Crédits04:35:13  +  00:13:17=39,569 
150 UKRAndriy GrivkoKAZAstana Pro Team04:35:13  +  00:13:17=39,569 
151 FRAPerrig QuemeneurFRADirect Energie04:35:13  +  00:13:17=39,569 
152 FRAFlorian SénéchalFRACofidis – Solutions Crédits04:35:13  +  00:13:17=39,569 
153 BELDimitri ClaeysFRACofidis – Solutions Crédits04:35:13  +  00:13:17=39,569 
154 CZEOndrej CinkBHRBahrain-Merida04:35:13  +  00:13:17=39,569 
155 ITAAndrea PasqualonBELWanty – Groupe Gobert04:35:13  +  00:13:17=39,569 
156 BELJürgen RoelandtsBELLotto Soudal04:35:13  +  00:13:17=39,569 
157 SLOGrega BoleBHRBahrain-Merida04:35:13  +  00:13:17=39,569 
158 AUTMichael GoglUSATrek – Segafredo04:35:13  +  00:13:17=39,569 
159 COLJarlinson Pantano GomezUSATrek – Segafredo04:35:13  +  00:13:17=39,569 
160 KAZBakhtiyar KozhatayevKAZAstana Pro Team04:35:13  +  00:13:17=39,569 
161 NEDDylan GroenewegenNLDTeam Lotto NL - Jumbo04:35:13  +  00:13:17=39,569 
162 USAAndrew TalanskyUSACannondale-Drapac Pro Cycling ..04:35:13  +  00:13:17=39,569 
163 FRARomain SicardFRADirect Energie04:35:13  +  00:13:17=39,569 
164 FRAAmaël MoinardUSABMC Racing Team04:35:13  +  00:13:17=39,569 
165 AUTMarco HallerCHETeam Katusha - Alpecin04:35:13  +  00:13:17=39,569 
166 NEDAlbert TimmerDEUTeam Sunweb04:35:13  +  00:13:17=39,569 
167 FRAPierre RollandUSACannondale-Drapac Pro Cycling ..04:35:13  +  00:13:17=39,569 
168 AUSMathew HaymanAUSOrica - Scott04:35:13  +  00:13:17=39,569 
169 ENGStephen CummingsZAFDimension Data04:35:13  +  00:13:17=39,569 
170 GERMarcel KittelBELQuick-Step Floors04:35:13  +  00:13:17=39,569 
171 KAZDmitriy GruzdevKAZAstana Pro Team04:35:13  +  00:13:17=39,569 
172 BELPieter VanspeybrouckBELWanty – Groupe Gobert04:35:13  +  00:13:17=39,569 
173 SLOBorut BozicBHRBahrain-Merida04:35:13  +  00:13:17=39,569 
174 USATaylor PhinneyUSACannondale-Drapac Pro Cycling ..04:35:13  +  00:13:17=39,569 
175 ENGDaniel McLayFRAFortuneo - Vital Concept04:46:09  +  00:24:13=38,057 
176 BELTim WellensBELLotto Soudal04:50:50  +  00:28:54=37,444 

Withdrawls: 1
 
Rider
Team
Reason
34  ITAFabio FellineUSATrek – SegafredoDid not finish

Todays birthdays.

1874  Henri Timmermann
1877  Gustave Guillarme
1886  Guillaume Nyssen
1892  Albert Cartigny
1913  Arsène Mersch
1919  Jean Breuer
1927  Alfred Kain
1930  Edgard Sorgeloos
1937  Frans De Mulder
1960  Jacques Hanegraaf
1986  Andrey Zeits